TimeEST,TemperatureF,Dew PointF,Humidity,Sea Level PressureIn,VisibilityMPH,Wind Direction,Wind SpeedMPH,Gust SpeedMPH,PrecipitationIn,Events,Conditions,WindDirDegrees,DateUTC
12:32 AM,44.6,42.8,93,29.45,7.0,South,24.2,31.1,0.05,Rain,Light Rain,190,2013-02-19 05:32:00
12:54 AM,45.0,42.1,90,29.47,7.0,SSW,21.9,28.8,0.06,Rain,Rain,210,2013-02-19 05:54:00
1:13 AM,39.2,37.4,93,29.49,8.0,WNW,31.1,38.0,N/A,Rain,Rain,290,2013-02-19 06:13:00
1:46 AM,35.6,32.0,87,29.51,4.0,West,20.7,29.9,0.05,Snow,Light Snow,270,2013-02-19 06:46:00
1:54 AM,35.1,33.1,92,29.53,7.0,West,18.4,27.6,0.05,Rain,Light Rain,270,2013-02-19 06:54:00
2:08 AM,35.6,32.0,87,29.52,9.0,West,19.6,27.6,0.00,,Overcast,260,2013-02-19 07:08:00
2:54 AM,34.0,30.9,89,29.56,6.0,West,18.4,-,0.00,,Overcast,270,2013-02-19 07:54:00
3:43 AM,30.2,26.6,86,29.58,10.0,West,17.3,27.6,N/A,,Overcast,260,2013-02-19 08:43:00
3:54 AM,30.0,26.1,85,29.61,10.0,West,26.5,32.2,N/A,,Overcast,260,2013-02-19 08:54:00
4:54 AM,27.0,21.9,81,29.63,10.0,West,21.9,35.7,N/A,,Overcast,260,2013-02-19 09:54:00
5:54 AM,25.0,19.0,78,29.66,8.0,West,21.9,27.6,0.00,Snow,Light Snow,260,2013-02-19 10:54:00
6:54 AM,21.9,16.0,78,29.69,10.0,West,21.9,31.1,0.00,,Overcast,260,2013-02-19 11:54:00
7:08 AM,21.2,15.8,80,29.67,9.0,West,20.7,28.8,0.00,Snow,Light Snow,260,2013-02-19 12:08:00
7:54 AM,21.0,14.0,74,29.72,5.0,WSW,17.3,25.3,0.00,Snow,Light Snow,250,2013-02-19 12:54:00
8:05 AM,19.4,14.0,80,29.70,1.8,WSW,18.4,28.8,0.00,Snow,Light Snow,250,2013-02-19 13:05:00
8:25 AM,19.4,12.2,74,29.71,3.0,WSW,16.1,29.9,0.00,Snow,Light Snow,250,2013-02-19 13:25:00
8:32 AM,19.4,12.2,74,29.72,2.0,West,17.3,23.0,0.00,Snow,Light Snow,260,2013-02-19 13:32:00
8:54 AM,19.0,12.9,77,29.75,2.0,WSW,21.9,28.8,0.00,Snow,Light Snow,240,2013-02-19 13:54:00
9:01 AM,19.4,12.2,74,29.73,1.5,WSW,18.4,28.8,0.00,Snow,Light Snow,250,2013-02-19 14:01:00
9:54 AM,18.0,12.0,78,29.78,1.5,West,18.4,27.6,0.00,Snow,Light Snow,260,2013-02-19 14:54:00
10:54 AM,18.0,10.9,74,29.81,1.5,WSW,17.3,23.0,0.00,Snow,Light Snow,250,2013-02-19 15:54:00
11:54 AM,17.1,10.0,74,29.83,1.5,West,23.0,-,0.00,Snow,Light Snow,270,2013-02-19 16:54:00
1:16 PM,17.6,10.4,73,29.83,2.0,West,19.6,31.1,0.00,Snow,Light Snow,270,2013-02-19 18:16:00
1:29 PM,17.6,10.4,73,29.83,2.0,West,18.4,26.5,0.00,Snow,Light Snow,260,2013-02-19 18:29:00
1:46 PM,17.6,8.6,68,29.84,1.0,West,25.3,32.2,0.00,Snow,Light Snow,270,2013-02-19 18:46:00
1:54 PM,17.1,8.1,68,29.87,2.0,West,21.9,29.9,0.00,Snow,Light Snow,270,2013-02-19 18:54:00
2:54 PM,17.1,10.0,74,29.90,1.0,West,20.7,25.3,0.00,Snow,Light Snow,260,2013-02-19 19:54:00
3:54 PM,16.0,9.0,74,29.94,1.0,WSW,19.6,25.3,0.00,Snow,Light Snow,250,2013-02-19 20:54:00
4:54 PM,16.0,10.0,77,29.97,1.0,West,17.3,-,0.00,Snow,Light Snow,260,2013-02-19 21:54:00
5:29 PM,15.8,10.4,79,29.95,0.8,West,18.4,-,0.00,Snow,Light Snow,260,2013-02-19 22:29:00
5:42 PM,15.8,10.4,79,29.96,1.0,WSW,13.8,23.0,0.00,Snow,Light Snow,250,2013-02-19 22:42:00
5:54 PM,16.0,10.0,77,30.00,1.0,West,17.3,23.0,0.00,Snow,Light Snow,260,2013-02-19 22:54:00
7:32 PM,15.8,10.4,79,30.01,1.0,West,13.8,-,0.00,Snow,Light Snow,270,2013-02-20 00:32:00
7:54 PM,16.0,10.0,77,30.06,1.0,West,13.8,-,0.00,Snow,Light Snow,280,2013-02-20 00:54:00
8:47 PM,15.8,10.4,79,30.03,3.0,WNW,15.0,-,0.00,Snow,Light Snow,300,2013-02-20 01:47:00
8:54 PM,16.0,9.0,74,30.08,3.0,West,15.0,-,0.00,Snow,Light Snow,280,2013-02-20 01:54:00
8:59 PM,15.8,8.6,73,30.04,2.5,West,13.8,21.9,0.00,Snow,Light Snow,280,2013-02-20 01:59:00
9:54 PM,16.0,10.0,77,30.09,2.5,West,13.8,-,0.00,Snow,Light Snow,270,2013-02-20 02:54:00
10:25 PM,15.8,10.4,79,30.05,2.5,West,12.7,-,0.00,Snow,Light Snow,270,2013-02-20 03:25:00
10:41 PM,15.8,10.4,79,30.05,2.5,West,13.8,-,0.00,Snow,Light Snow,280,2013-02-20 03:41:00
10:54 PM,16.0,10.9,81,30.10,0.8,West,13.8,-,0.00,Snow,Light Snow,280,2013-02-20 03:54:00
11:23 PM,15.8,12.2,86,30.06,0.5,West,12.7,-,0.01,Fog-Snow,Snow,280,2013-02-20 04:23:00
11:30 PM,15.8,12.2,86,30.06,0.5,West,11.5,-,0.01,Fog-Snow,Snow,280,2013-02-20 04:30:00
11:37 PM,15.8,12.2,86,30.06,0.8,West,12.7,-,0.01,Snow,Light Snow,280,2013-02-20 04:37:00
11:54 PM,16.0,12.0,84,30.11,0.8,West,13.8,-,0.02,Snow,Light Snow,280,2013-02-20 04:54:00